Preview of NWS' New Version of Forecast
This preview is not operational and should not be used for support decisions.

Regional Weather Roundup (RWR)

Issued by National Weather Service (NWS)

                            
000
ASUS43 KLSX 232357
RWRMO 

WEATHER SUMMARY FOR MISSOURI
NATIONAL WEATHER SERVICE SPRINGFIELD MO
700 PM CDT SAT MAR 23 2019

NOTE: "FAIR" INDICATES FEW OR NO CLOUDS BELOW 12,000 FEET WITH NO
       SIGNIFICANT WEATHER AND/OR OBSTRUCTIONS TO VISIBILITY.
       CURRENT SKY AND/OR WEATHER CONDITIONS ARE NOT AVAILABLE FOR
       CHILLICOTHE AND FARMINGTON.

MOZ001>031-035>038-043-044-053-054-240100-
...NORTHERN AND WESTERN MISSOURI...
  
CITY           SKY/WX    TMP DP  RH WIND       PRES   REMARKS
KANSAS CTY INT CLOUDY    57  46  66 SE7       30.01S                  
6HR MIN TEMP:  54; 6HR MAX TEMP:  59; 6HR PCP: TRACE;                

LEE'S SUMMIT   CLOUDY    56  45  66 S8        30.03R                  
6HR MIN TEMP:  56; 6HR MAX TEMP:  60; 6HR PCP: TRACE;                

ST JOSEPH        N/A    N/A N/A N/A MISG      30.01F                  
CHILLICOTHE      N/A     58  40  51 SE10G16   30.06R                  
6HR MIN TEMP:  55; 6HR MAX TEMP:  59;                                

     
$$
MOZ066>068-077>081-088>096-101>105-240100-
...SOUTHWEST MISSOURI...
  
CITY           SKY/WX    TMP DP  RH WIND       PRES   REMARKS
SPRINGFIELD    LGT RAIN  50  44  80 SE6       30.10R                  
6HR MIN TEMP:  50; 6HR MAX TEMP:  59; 6HR PCP:  0.07;                

JOPLIN         LGT RAIN  52  49  89 E7        30.07R FOG              
6HR MIN TEMP:  50; 6HR MAX TEMP:  53; 6HR PCP:  0.34;                

BRANSON        RAIN      46  46 100 SE13      30.15R FOG              
               
$$
MOZ032>034-039>042-045>050-055>058-069>072-240100-
...CENTRAL MISSOURI...  
  
CITY           SKY/WX    TMP DP  RH WIND       PRES   REMARKS
COLUMBIA       NOT AVBL                                               
JEFFERSON CITY CLOUDY    60  35  39 SE12      30.15R                  
6HR MIN TEMP:  57; 6HR MAX TEMP:  65;                                

ROLLA          LGT RAIN  50  40  68 SE10      30.17R                  
6HR MIN TEMP:  50; 6HR MAX TEMP:  61; 6HR PCP: TRACE;                

SEDALIA        CLOUDY    53  32  44 SE29G41   29.99F                  
6HR MIN TEMP:  51; 6HR MAX TEMP:  63; 6HR PCP:  0.04;                

WARRENSBURG    CLOUDY    52  43  71 SW7       30.05R                  
               
$$
MOZ051-052-059>065-240100-
...EAST CENTRAL MISSOURI...
  
CITY           SKY/WX    TMP DP  RH WIND       PRES   REMARKS
ST LOUIS INTL  CLOUDY    57  32  38 SE10      30.19F                  
6HR MIN TEMP:  55; 6HR MAX TEMP:  59; 6HR PCP: TRACE;                

                   
$$
MOZ072>076-082>087-097>100-106>115-240100-
...SOUTH CENTRAL AND SOUTHEAST MISSOURI...
  
CITY           SKY/WX    TMP DP  RH WIND       PRES   REMARKS
CAPE GIRARDEAU FAIR      56  36  47 E8        30.18F                  
6HR MIN TEMP:  56; 6HR MAX TEMP:  60;                                

POPLAR BLUFF   FAIR      57  41  55 NE6       30.17F                  
6HR MIN TEMP:  57; 6HR MAX TEMP:  62;                                

WEST PLAINS    CLOUDY    50  46  86 E3        30.16R                  
6HR MIN TEMP:  50; 6HR MAX TEMP:  57; 6HR PCP:  0.18;                

                                       
$$